Back to catalog

FENGYUN 1C DEB

AliveSSO
NORAD 29868·DEBRIS·🇨🇳 China

Launched May 10, 1999 from Taiyuan Satellite Launch Center

Loading…

Next Passes (next 24 hours)

TLE

FreshSource: Space-Track

Epoch: Sep 14, 2026, 09:10 UTC

1 29868U 99025FN  26257.38263707  .00004372  00000-0  41486-3 0  9998
2 29868  97.9132 305.0343 0186891 188.3268 303.5120 14.81762038 43734

Track FENGYUN 1C DEB in real time with AllMySat

Download on the App Store